Powrót do katalogu

FENGYUN 1C DEB

LostPO
NORAD 38812·DEBRIS·🇨🇳 China

Wystrzelony May 10, 1999 z Taiyuan Satellite Launch Center

Loading…

Następne Przeloty (najbliższe 24 godziny)

TLE

NieaktualneSource: Space-Track

Epoka: Aug 12, 2026, 06:32 UTC

1 38812U 99025EVC 26224.27253131  .00000726  00000-0  70511-3 0  9999
2 38812  98.4197  40.9225 0258960 101.7907 261.2411 13.68206120495014

Śledź FENGYUN 1C DEB w czasie rzeczywistym z AllMySat

Download on the App Store